Location: Shenandoah County Park
(38.9356°N, 78.4524°W)
Time: 14:10:45
(UTC-05:00)

Vanguard 2 - Visible Passes

Search period start: 01 December 2023 00:00
Search period end: 11 December 2023 00:00
Orbit: 553 x 2922 km, 32.9° (Epoch: 01 December)

Date Brightness Start Highest point End Pass type
(mag) Time Alt. Az. Time Alt. Az. Time Alt. Az.
01 Dec 9.8 04:32:36 14° S 04:32:36 14° S 04:33:30 10° S visible
01 Dec 10.9 19:53:20 10° SSW 20:06:20 29° SSE 20:06:20 29° SSE visible
01 Dec 11.3 22:02:00 10° SW 22:07:34 24° SW 22:07:34 24° SW visible
02 Dec 10.0 04:47:29 10° SSW 04:47:29 10° SSW 04:47:38 10° S visible
02 Dec 11.4 18:05:31 10° SSE 18:12:00 13° SE 18:18:17 10° ESE visible
02 Dec 10.7 20:07:29 10° SSW 20:21:11 35° SSE 20:21:11 35° SSE visible
02 Dec 11.3 22:17:17 10° WSW 22:22:25 23° SW 22:22:25 23° SW visible
03 Dec 11.2 18:16:55 10° S 18:27:19 19° SE 18:34:45 14° ESE visible
03 Dec 10.6 20:22:02 10° SW 20:36:00 41° SSE 20:36:00 41° SSE visible
03 Dec 11.4 22:32:45 10° WSW 22:37:14 21° WSW 22:37:14 21° WSW visible
04 Dec 11.1 18:29:57 10° S 18:42:36 25° SE 18:49:34 19° ESE visible
04 Dec 10.5 20:36:54 10° SW 20:50:48 46° S 20:50:48 46° S visible
04 Dec 11.5 22:48:19 10° WSW 22:52:02 19° WSW 22:52:02 19° WSW visible
05 Dec 10.9 18:43:45 10° SSW 18:57:55 31° SE 19:04:20 25° ESE visible
05 Dec 10.5 20:52:00 10° SW 21:05:34 50° SSW 21:05:34 50° SSW visible
05 Dec 11.6 23:04:00 10° WSW 23:06:48 17° WSW 23:06:48 17° WSW visible
06 Dec 10.7 18:58:01 10° SSW 19:13:15 38° SSE 19:19:05 31° ESE visible
06 Dec 10.5 21:07:18 10° WSW 21:20:18 51° SSW 21:20:18 51° SSW visible
06 Dec 11.7 23:19:45 10° W 23:21:32 14° W 23:21:32 14° W visible
07 Dec 11.4 17:07:57 10° S 17:18:17 20° SE 17:29:01 10° E visible
07 Dec 10.5 19:12:39 10° SW 19:28:38 45° SSE 19:33:47 38° ESE visible
07 Dec 10.6 21:22:45 10° WSW 21:35:01 49° SW 21:35:01 49° SW visible
07 Dec 11.8 23:35:32 10° W 23:36:14 12° W 23:36:14 12° W visible
08 Dec 11.2 17:21:11 10° S 17:33:24 26° SE 17:46:13 10° E visible
08 Dec 10.4 19:27:33 10° SW 19:44:05 52° SSE 19:48:28 45° ESE visible
08 Dec 10.7 21:38:20 10° WSW 21:49:41 46° WSW 21:49:41 46° WSW visible
09 Dec 11.1 17:35:07 10° SSW 17:48:32 32° SE 18:01:53 12° E visible
09 Dec 10.2 19:42:40 10° SW 19:59:36 58° SSE 20:03:06 52° SE visible
09 Dec 10.8 21:53:59 10° WSW 22:04:19 42° WSW 22:04:19 42° WSW visible
10 Dec 10.9 17:49:28 10° SSW 18:03:44 39° SE 18:16:29 16° E visible
10 Dec 10.2 19:57:58 10° WSW 20:15:10 63° SSE 20:17:42 59° SE visible
10 Dec 10.9 22:09:42 10° W 22:18:56 38° WSW 22:18:56 38° WSW visible
